Theta_e
325 316 309 309 301 297 293 296 297 300 302 309 313 312 310 314 308 301 329 334 335 339 342 343 347 348 347 346 347 348 348 347 346 346 344 342 339 338 336 336 335 336 335 335 336 336 335 335 336
313 313 309 301 297 293 295 297 299 302 309 316 315 315 313 310 320 328 330 335 340 339 339 341 345 348 346 346 347 347 348 347 345 344 343 341 339 337 336 335 335 335 334 334 336 335 335 335 334
312 309 304 298 293 293 294 298 301 306 312 309 313 317 313 313 325 327 333 338 338 336 337 339 344 346 346 346 345 346 347 345 345 343 342 340 338 336 335 334 334 335 334 334 335 334 335 335 334
309 308 301 296 293 297 298 302 305 305 306 314 315 311 316 323 324 329 337 337 335 334 336 340 344 345 344 345 345 345 344 345 345 343 341 340 338 336 333 335 333 334 334 334 334 334 334 334 334
308 303 294 292 294 297 301 305 305 304 305 309 312 309 312 323 330 335 334 336 332 333 336 338 342 343 344 344 345 345 345 346 346 344 340 338 336 336 334 334 333 334 333 333 333 333 333 333 333
303 300 293 291 294 298 302 305 304 303 306 311 313 312 315 322 330 331 335 333 334 333 336 338 336 338 340 341 344 343 345 345 345 343 340 338 337 334 334 334 334 334 333 332 332 331 331 332 331
301 297 294 293 295 295 299 305 301 304 306 306 316 309 313 318 328 334 335 335 333 335 334 334 335 335 334 336 336 338 342 342 342 341 340 338 337 336 334 334 334 333 332 331 330 330 330 330 330
301 299 295 294 297 296 299 301 304 306 304 315 316 309 311 320 327 333 333 332 333 332 332 331 332 333 332 331 330 333 335 338 338 336 334 332 333 333 332 331 333 332 331 330 329 329 328 327 328
305 295 294 297 296 297 303 300 304 307 308 313 315 315 316 324 326 330 328 328 329 330 329 330 330 330 330 328 326 328 331 331 331 330 327 326 325 326 325 326 331 332 331 329 328 327 325 325 325
300 295 297 303 298 294 297 300 304 305 305 306 310 318 320 323 322 324 325 324 325 326 328 329 328 328 328 329 325 326 328 326 325 324 324 324 323 322 324 322 327 329 328 329 327 326 325 321 317
302 297 301 302 302 299 298 299 301 303 302 307 309 315 318 318 319 323 326 326 325 326 328 329 327 327 326 326 324 323 324 323 321 321 322 322 322 320 319 319 320 318 319 317 319 319 317 317 316
299 305 306 309 309 306 298 299 298 302 302 305 312 318 319 319 319 321 323 326 326 326 328 328 328 327 325 325 323 322 322 321 320 321 323 321 318 316 315 315 314 314 316 315 316 316 317 316 317
298 300 307 310 310 302 300 298 297 297 298 310 318 319 319 320 320 320 323 326 329 327 328 328 328 328 327 324 323 322 321 321 321 321 322 321 317 315 314 313 313 314 315 316 315 316 317 316 317
303 303 305 306 304 300 298 297 301 298 302 313 317 316 318 320 320 319 321 323 327 328 328 329 327 329 328 326 323 323 322 321 321 321 321 320 319 316 316 315 316 316 317 317 317 316 316 316 317
305 300 303 304 305 301 298 296 298 301 309 312 314 313 315 318 318 321 322 323 325 328 330 330 327 328 326 326 324 323 322 322 321 321 321 321 319 317 317 316 316 318 318 317 317 317 316 316 318
298 295 291 299 303 303 299 294 300 303 308 309 311 311 313 317 318 321 321 322 323 325 327 330 331 327 326 324 323 322 321 321 321 321 321 321 320 318 316 316 317 318 318 317 316 316 314 313 313
291 286 288 295 300 299 298 294 301 302 300 302 307 310 313 315 316 319 320 322 323 324 324 326 331 325 325 325 323 322 320 320 320 320 320 320 320 318 316 317 318 319 318 317 317 315 313 312 312
286 286 289 290 296 294 294 294 298 300 301 301 299 307 311 314 316 320 321 322 323 324 323 324 327 330 324 323 323 319 319 319 319 320 321 320 321 320 318 317 318 318 316 316 315 314 313 312 311
291 290 290 291 298 293 293 296 300 301 298 299 298 297 302 311 317 319 320 321 321 321 321 323 323 327 327 321 317 317 318 317 317 319 320 320 320 319 318 317 317 317 317 316 315 314 313 312 312
292 288 288 293 297 293 293 293 296 298 298 299 300 299 298 298 306 314 319 319 320 321 322 322 323 326 328 327 323 321 319 317 319 318 317 320 320 320 320 318 317 317 316 315 314 313 311 311 312
292 291 289 290 294 292 290 291 295 296 298 299 299 302 302 301 301 303 315 319 320 321 321 322 323 324 327 329 324 319 317 316 314 314 317 319 321 321 320 319 319 318 318 317 315 314 312 310 310
289 295 295 293 291 285 290 283 290 294 297 298 301 302 301 301 302 303 308 317 320 321 323 323 323 324 326 328 325 323 320 316 318 318 318 318 320 321 321 320 319 318 318 317 317 316 315 311 309
292 296 295 294 290 289 288 287 288 293 294 296 300 302 303 304 304 305 303 314 319 322 323 323 323 323 325 326 327 324 323 323 320 318 316 317 318 321 321 321 320 319 319 319 318 314 314 315 312
297 293 292 290 289 283 288 287 287 291 293 296 299 302 304 305 305 306 308 308 315 320 323 323 321 321 324 324 325 324 323 322 320 318 318 318 319 320 321 321 321 320 320 319 318 317 315 316 316
296 290 284 283 282 279 286 285 290 293 295 297 299 301 303 302 304 304 305 304 308 315 320 322 319 319 321 322 323 324 323 323 322 320 319 319 318 319 320 321 321 321 321 320 319 317 316 316 315
293 292 284 277 278 280 284 283 288 296 301 302 301 302 300 300 301 302 304 306 306 313 319 321 319 318 319 321 321 322 323 323 323 323 322 320 321 321 322 322 322 321 321 320 319 318 317 317 316
291 289 292 284 272 276 282 286 291 293 294 298 300 301 300 301 302 301 302 302 304 310 316 319 320 317 318 320 321 321 322 322 322 322 322 322 321 321 320 321 321 322 321 320 319 318 318 317 316
294 296 287 287 278 274 279 280 285 288 292 296 299 298 298 298 298 298 298 299 300 305 313 317 320 318 317 318 321 321 322 322 323 322 320 320 321 320 319 320 320 320 321 320 319 319 319 318 317
292 290 291 290 284 278 276 281 288 292 294 295 297 297 296 296 295 295 295 295 295 299 308 313 316 318 317 316 317 319 319 320 321 321 320 320 320 320 319 320 320 320 320 320 320 319 320 318 317
295 292 292 286 281 283 280 284 290 291 290 291 294 294 293 291 291 291 293 294 294 294 301 308 311 313 315 318 317 316 316 316 316 317 318 318 318 318 320 320 319 320 321 321 320 319 318 317 315
Wind_Speed
7 7 2 5 5 5 2 4 1 3 1 4 2 3 7 3 3 4 3 4 10 7 6 7 10 13 14 12 12 12 13 14 16 18 19 16 16 16 15 15 15 15 15 15 16 16 16 16 17
5 5 5 3 5 2 5 3 5 3 5 7 7 3 5 2 3 5 6 6 8 8 5 6 10 13 13 11 11 12 13 13 14 18 18 17 16 14 14 15 13 15 15 15 15 16 16 15 17
4 4 3 4 3 4 4 3 5 3 7 2 5 5 2 2 2 7 4 8 7 7 5 6 10 12 12 10 10 10 12 12 15 17 18 17 15 13 13 13 13 13 14 14 15 15 16 15 15
3 4 4 4 3 5 5 5 6 6 2 4 5 6 2 1 6 6 10 9 7 6 6 7 10 12 11 10 10 11 12 13 15 18 18 16 15 13 11 12 12 12 12 13 14 14 14 13 12
4 3 3 0 4 4 3 4 7 5 3 2 2 4 2 4 5 13 11 9 10 5 5 6 10 10 9 10 10 10 9 14 16 18 18 16 15 12 12 11 11 11 11 12 12 12 12 12 11
4 2 3 2 3 4 1 3 4 3 2 4 6 4 4 2 10 7 10 7 7 9 5 5 8 8 7 8 10 9 10 12 14 17 18 15 14 12 12 11 11 10 10 10 10 10 9 11 11
5 3 4 0 2 3 4 5 2 5 5 2 9 6 1 2 5 10 10 9 7 7 6 5 5 6 6 5 8 9 9 10 13 16 15 13 12 11 10 9 10 10 10 9 9 8 7 8 10
4 3 4 3 0 3 2 2 1 3 1 4 3 6 5 6 8 9 9 9 9 6 5 6 5 5 5 3 5 7 9 10 12 13 12 11 10 10 9 7 8 9 9 8 7 6 6 7 9
2 3 2 5 4 4 4 1 1 2 6 2 3 4 2 11 9 9 10 5 6 4 4 5 6 5 5 5 3 5 8 8 10 9 11 8 4 5 6 5 7 7 7 6 5 4 3 4 8
4 3 5 3 5 2 3 1 5 3 3 1 1 2 3 11 8 11 13 12 10 9 8 5 7 6 5 3 5 4 5 3 4 5 5 4 4 3 3 3 5 5 5 4 3 1 4 4 3
2 5 3 2 2 4 3 1 2 6 3 6 8 6 7 6 7 10 13 14 15 11 8 7 6 6 6 4 3 2 2 3 3 4 4 4 3 2 2 1 0 0 1 1 2 2 1 2 2
1 5 4 2 4 3 4 5 2 4 5 3 8 9 11 12 11 13 12 13 11 12 12 9 7 7 6 4 3 4 3 2 3 4 5 3 2 2 2 1 2 2 2 2 2 0 1 1 1
2 3 3 3 6 7 0 4 3 5 3 3 8 9 13 14 9 6 7 8 12 14 12 11 9 8 6 6 5 4 5 4 5 4 4 4 4 4 3 2 2 2 1 2 2 2 1 1 1
3 3 3 4 2 4 3 2 2 5 3 5 8 11 10 13 13 6 8 10 11 13 14 13 12 10 9 8 8 6 5 5 4 4 5 6 4 4 4 4 4 4 3 3 3 3 3 2 2
0 2 5 5 2 2 1 5 7 5 4 6 7 6 7 10 8 15 14 12 12 10 13 14 13 11 10 8 8 7 6 5 5 5 6 7 6 5 5 4 4 4 4 4 3 2 1 2 3
3 1 2 4 6 5 6 11 10 6 8 8 8 7 7 12 13 12 9 8 8 8 10 12 11 13 11 9 6 5 5 5 5 4 4 7 7 7 6 5 4 4 3 3 2 2 1 1 1
2 4 3 6 6 2 6 7 9 9 9 9 9 10 11 9 9 12 9 10 8 9 9 9 12 13 13 11 8 7 8 7 5 4 4 6 7 7 6 4 4 5 4 4 3 3 2 2 1
5 3 3 6 4 5 7 13 9 5 6 10 10 10 11 12 17 17 15 10 9 8 9 11 9 11 11 7 7 4 4 7 7 8 8 8 7 7 6 4 5 4 3 3 2 3 3 2 2
4 4 7 3 6 4 8 18 18 13 6 9 9 10 12 14 18 12 11 10 8 7 10 12 12 12 10 7 6 5 9 6 6 7 10 9 7 7 7 5 5 5 6 6 6 4 5 4 3
1 1 2 4 6 6 8 15 11 11 9 10 13 11 13 8 11 9 12 11 12 15 14 12 14 13 12 10 8 6 6 4 7 6 6 8 9 9 8 7 7 7 5 6 6 5 3 3 5
5 7 2 3 6 3 3 10 15 7 12 12 10 14 11 16 15 12 13 17 16 16 16 16 16 15 14 14 5 3 3 1 3 3 6 9 11 10 10 9 8 7 6 6 6 7 7 4 4
13 8 5 5 3 5 2 9 10 5 15 11 17 16 16 14 12 14 13 15 17 19 16 18 15 16 15 15 11 14 11 11 9 9 7 7 10 11 10 10 9 8 7 8 9 7 6 4 5
5 6 11 6 7 5 5 7 8 6 12 11 15 17 15 16 17 18 14 15 17 17 18 18 17 16 15 16 17 12 15 10 6 5 7 9 7 11 11 11 10 11 9 10 10 7 9 7 5
8 4 4 4 2 12 20 10 8 11 8 8 9 15 15 16 16 16 14 14 14 14 16 15 17 17 16 16 18 18 17 14 9 7 9 8 8 8 11 11 12 11 11 11 10 10 10 10 9
9 6 3 6 6 12 7 9 21 7 8 11 15 13 14 11 11 9 10 11 14 14 16 15 17 18 18 18 18 20 19 16 17 13 10 10 8 9 12 14 13 12 12 12 10 10 11 11 11
15 13 5 7 5 7 3 10 10 12 17 17 15 14 8 9 8 9 10 11 13 15 16 18 17 19 18 19 20 17 18 13 13 15 12 11 12 11 11 12 14 14 13 13 11 9 10 11 12
5 16 5 3 2 2 6 10 7 8 9 10 16 17 15 10 10 10 9 8 9 11 16 18 18 17 17 19 16 17 16 18 16 17 13 11 12 11 11 12 14 14 13 13 14 11 13 12 13
8 7 5 6 5 6 6 7 9 1 10 12 17 16 11 8 9 8 7 7 7 9 10 12 15 16 17 18 16 15 16 16 15 12 14 15 14 11 10 11 12 13 14 14 13 13 13 12 12
7 8 7 2 5 5 4 9 10 17 15 16 17 9 9 9 9 7 5 4 4 5 6 8 10 12 12 12 13 12 12 14 14 13 13 13 11 12 11 12 12 13 13 13 13 14 15 14 15
14 18 14 7 7 3 1 15 5 6 9 8 14 9 6 6 5 2 3 5 3 4 3 6 5 7 7 8 8 9 9 9 10 12 12 10 11 10 11 11 12 13 14 14 14 15 13 15 14
Wind_Direction
318 326 37 39 53 60 265 249 181 143 90 320 33 114 129 42 121 204 317 144 131 141 135 124 124 126 124 121 121 122 118 116 115 114 105 101 100 96 92 92 92 89 89 97 103 96 86 80 88
327 352 42 74 89 72 269 259 179 185 156 142 75 58 43 93 92 128 120 156 132 129 120 120 126 129 131 127 123 127 121 125 125 111 108 108 101 103 93 94 92 90 92 101 105 95 86 87 97
34 43 67 87 100 177 219 225 168 115 163 150 98 54 94 120 91 153 138 137 122 115 120 129 129 132 135 129 129 125 121 126 128 120 114 109 105 99 101 95 95 93 93 104 105 94 87 89 102
7 16 35 84 218 250 209 191 161 133 146 47 120 67 27 319 159 174 137 127 113 116 120 136 134 139 139 138 140 129 126 133 132 125 116 115 111 107 105 99 100 96 97 102 101 90 86 87 101
29 55 53 357 257 273 252 180 158 141 143 122 129 162 57 349 114 138 132 135 130 121 123 133 133 141 147 149 141 134 141 136 130 126 119 118 116 117 112 108 110 105 102 100 100 94 90 93 97
41 81 79 223 260 299 323 140 137 125 155 156 79 116 161 10 133 146 132 135 138 135 132 130 137 144 149 144 136 130 130 142 133 119 120 124 123 127 121 119 114 112 108 105 102 95 89 88 90
112 96 184 226 265 303 213 140 170 166 139 211 150 114 272 189 183 144 145 137 134 132 133 133 139 141 138 126 139 133 127 118 123 119 122 118 123 126 121 120 122 116 115 110 101 94 85 76 79
102 92 150 192 217 278 4 130 56 130 82 110 148 168 203 197 173 131 131 137 144 139 142 143 139 140 138 123 127 121 114 118 113 111 113 114 118 118 123 129 136 132 124 120 115 99 78 63 64
101 63 187 188 137 295 318 162 26 56 113 50 1 155 258 142 143 128 125 117 134 130 143 148 146 153 146 135 122 105 108 112 118 120 124 114 123 131 134 152 136 140 135 136 127 103 66 38 63
99 139 215 187 158 175 278 249 161 114 120 38 318 354 99 139 156 152 161 165 168 170 174 169 156 155 147 131 132 116 118 115 110 121 126 118 132 143 132 143 145 144 153 163 156 107 72 69 72
139 192 173 254 141 64 330 57 343 127 245 211 197 176 153 151 155 169 175 179 179 180 178 174 172 152 151 146 141 130 128 129 122 140 135 123 124 127 126 146 153 173 91 8 4 25 59 110 105
196 257 193 253 359 49 345 314 289 191 234 277 198 160 162 174 176 178 177 185 181 174 182 175 177 170 171 149 154 146 142 143 155 173 155 146 149 166 179 219 217 211 206 226 228 246 219 176 127
215 258 235 250 313 307 343 256 241 247 284 44 132 153 178 186 187 183 178 177 182 181 180 182 176 182 176 170 165 165 174 172 179 175 184 172 175 185 178 215 231 242 260 244 228 226 230 230 222
269 256 295 308 331 302 287 285 38 249 139 129 160 178 190 193 189 179 191 192 191 182 183 179 183 187 180 183 180 184 177 184 176 182 197 190 185 182 187 197 218 233 219 224 213 211 220 242 256
223 303 295 265 263 270 163 296 237 230 135 172 201 196 199 210 197 206 202 196 190 190 183 181 181 187 187 199 193 183 188 188 192 197 190 191 192 197 197 202 212 218 211 215 212 230 247 278 293
139 43 211 274 182 242 167 257 234 189 153 204 203 222 222 221 217 223 212 204 186 185 189 183 181 184 190 190 190 189 188 188 199 199 191 196 195 192 197 196 211 210 202 198 193 202 255 288 235
264 203 209 305 205 176 190 256 261 198 181 209 213 211 218 231 236 238 225 213 189 192 187 184 187 179 189 193 190 196 181 185 202 193 194 203 198 201 195 194 203 193 197 196 190 198 178 203 194
193 200 208 207 247 195 235 258 269 306 226 213 217 223 215 218 229 227 227 213 204 198 193 198 190 187 182 188 189 185 195 198 191 200 206 200 209 204 191 206 214 186 178 200 182 195 204 197 152
159 183 207 228 245 179 226 251 254 253 254 255 241 229 227 222 230 225 231 221 201 207 196 198 199 195 180 185 186 202 208 205 213 210 209 199 198 197 195 200 195 185 196 199 195 182 197 221 149
22 135 263 290 260 177 261 261 253 237 244 226 235 238 230 219 236 218 211 206 206 211 209 205 202 197 198 197 200 203 191 210 209 198 203 201 198 203 202 199 201 194 194 200 191 179 184 219 180
213 215 203 247 338 248 298 272 266 246 240 243 240 236 233 221 225 227 208 205 206 210 207 208 207 200 200 203 174 119 117 72 164 191 209 212 204 203 203 204 204 202 196 204 200 196 188 201 210
232 172 188 251 313 245 97 282 262 255 238 233 243 234 230 230 228 230 214 209 206 213 207 211 210 204 202 194 192 200 208 210 213 212 215 212 212 213 207 206 205 204 201 207 208 197 199 168 209
227 169 198 223 251 332 238 272 269 221 240 239 244 246 237 230 225 227 218 210 211 212 206 206 205 205 203 201 202 202 216 219 209 200 195 210 211 216 210 206 202 207 207 215 211 193 202 203 200
146 79 59 62 166 253 243 216 243 237 208 252 241 245 244 233 227 232 222 219 215 210 212 205 202 205 199 202 204 206 212 217 213 201 203 206 213 213 218 210 213 216 215 214 212 212 207 209 215
175 141 215 214 200 239 187 209 246 272 279 248 257 253 247 238 235 229 221 213 217 207 206 206 201 206 199 200 206 210 210 208 217 211 209 206 208 212 216 210 213 217 218 217 211 209 214 210 215
196 195 203 208 197 254 122 230 243 219 237 244 243 253 264 249 242 234 230 224 220 211 202 200 203 207 198 200 208 211 211 210 216 216 213 218 220 221 215 210 217 219 216 215 211 216 221 214 221
173 214 198 359 122 27 220 278 289 255 263 260 258 253 254 244 246 243 252 238 230 212 206 203 205 211 202 203 205 207 209 212 216 219 217 222 223 224 213 207 210 215 217 218 213 220 226 218 222
168 140 188 207 217 246 247 265 239 242 244 254 262 249 242 239 249 250 249 248 247 234 214 206 207 208 205 205 204 207 210 216 221 215 215 216 225 218 212 208 209 211 217 219 216 228 233 228 230
190 205 224 325 174 215 269 257 209 214 221 230 246 276 246 246 243 246 255 261 256 250 219 207 197 200 203 203 206 211 213 213 216 218 219 220 220 217 212 213 212 214 216 219 221 229 233 230 236
234 216 197 207 208 264 38 263 177 215 266 263 269 268 242 225 197 222 280 289 281 273 253 218 197 185 194 193 189 201 212 211 212 218 221 216 218 217 216 214 215 219 221 224 223 228 228 229 229